Time,TemperatureF,DewpointF,PressureIn,WindDirection,WindDirectionDegrees,WindSpeedMPH,WindSpeedGustMPH,Humidity,HourlyPrecipIn,Conditions,Clouds,dailyrainin,SoftwareType,DateUTC
2013-06-02 00:02:00,53.0,50.0,-100.00,NE,45,12.0,21.0,90,0.00,,,-99.99,,2013-06-02 05:02:00,
2013-06-02 00:12:00,53.0,50.0,-100.00,NNE,30,11.0,21.0,91,0.00,,,-99.99,,2013-06-02 05:12:00,
2013-06-02 00:22:00,52.0,50.0,-100.00,NNE,30,11.0,17.0,91,0.00,,,-99.99,,2013-06-02 05:22:00,
2013-06-02 00:32:00,52.0,50.0,-100.00,NE,35,10.0,17.0,91,0.00,,,-99.99,,2013-06-02 05:32:00,
2013-06-02 00:42:00,52.0,50.0,-100.00,North,-999,-999.0,-999.0,92,0.00,,,-99.99,,2013-06-02 05:42:00,
2013-06-02 00:52:00,52.0,50.0,-100.00,NNE,25,9.0,14.0,93,0.00,,,-99.99,,2013-06-02 05:52:00,
2013-06-02 01:01:00,52.0,50.0,-100.00,NNE,30,9.0,12.0,93,0.00,,,-99.99,,2013-06-02 06:01:00,
2013-06-02 01:12:00,52.0,50.0,-100.00,NNE,15,7.0,11.0,93,0.00,,,-99.99,,2013-06-02 06:12:00,
2013-06-02 01:21:00,51.0,50.0,-100.00,NE,35,7.0,13.0,93,0.00,,,-99.99,,2013-06-02 06:21:00,
2013-06-02 01:32:00,51.0,49.0,-100.00,NNE,30,9.0,13.0,94,0.00,,,-99.99,,2013-06-02 06:32:00,
2013-06-02 01:41:00,51.0,50.0,-100.00,NNE,25,9.0,12.0,97,0.00,,,-99.99,,2013-06-02 06:41:00,
2013-06-02 01:52:00,51.0,50.0,-100.00,NNE,30,10.0,14.0,97,0.00,,,-99.99,,2013-06-02 06:52:00,
2013-06-02 02:01:00,51.0,50.0,-100.00,NNE,25,9.0,14.0,96,0.00,,,-99.99,,2013-06-02 07:01:00,
2013-06-02 02:11:00,51.0,50.0,-100.00,NNE,25,8.0,12.0,96,0.00,,,-99.99,,2013-06-02 07:11:00,
2013-06-02 02:21:00,51.0,50.0,-100.00,NNE,25,9.0,13.0,96,0.00,,,-99.99,,2013-06-02 07:21:00,
2013-06-02 02:31:00,51.0,50.0,-100.00,NNE,25,8.0,11.0,96,0.00,,,-99.99,,2013-06-02 07:31:00,
2013-06-02 02:42:00,51.0,50.0,-100.00,NNE,20,9.0,13.0,95,0.00,,,-99.99,,2013-06-02 07:42:00,
2013-06-02 02:52:00,51.0,50.0,-100.00,NNE,25,9.0,12.0,94,0.00,,,-99.99,,2013-06-02 07:52:00,
2013-06-02 03:01:00,51.0,50.0,-100.00,NNE,15,9.0,12.0,93,0.00,,,-99.99,,2013-06-02 08:01:00,
2013-06-02 03:11:00,52.0,49.0,-100.00,NNE,15,11.0,15.0,92,0.00,,,-99.99,,2013-06-02 08:11:00,
2013-06-02 03:21:00,52.0,49.0,-100.00,North,-999,-999.0,-999.0,92,0.00,,,-99.99,,2013-06-02 08:21:00,
2013-06-02 03:31:00,52.0,49.0,-100.00,NNE,20,8.0,13.0,92,0.00,,,-99.99,,2013-06-02 08:31:00,
2013-06-02 03:41:00,52.0,49.0,-100.00,NNE,25,7.0,12.0,92,0.00,,,-99.99,,2013-06-02 08:41:00,
2013-06-02 03:52:00,52.0,49.0,-100.00,NNE,20,11.0,16.0,90,0.00,,,-99.99,,2013-06-02 08:52:00,
2013-06-02 04:01:00,52.0,49.0,-100.00,NNE,20,9.0,14.0,90,0.00,,,-99.99,,2013-06-02 09:01:00,
2013-06-02 04:11:00,52.0,49.0,-100.00,North,10,11.0,12.0,90,0.00,,,-99.99,,2013-06-02 09:11:00,
2013-06-02 04:21:00,52.0,49.0,-100.00,North,10,12.0,14.0,90,0.00,,,-99.99,,2013-06-02 09:21:00,
2013-06-02 04:33:00,51.0,49.0,-100.00,NNE,20,6.0,12.0,91,0.00,,,-99.99,,2013-06-02 09:33:00,
2013-06-02 04:42:00,51.0,49.0,-100.00,NNE,30,3.0,11.0,92,0.00,,,-99.99,,2013-06-02 09:42:00,
2013-06-02 04:53:00,51.0,49.0,-100.00,NNE,15,4.0,6.0,93,0.00,,,-99.99,,2013-06-02 09:53:00,
2013-06-02 05:02:00,51.0,49.0,-100.00,North,0,3.0,4.0,94,0.00,,,-99.99,,2013-06-02 10:02:00,
2013-06-02 05:12:00,51.0,49.0,-100.00,North,10,6.0,7.0,93,0.00,,,-99.99,,2013-06-02 10:12:00,
2013-06-02 05:22:00,51.0,49.0,-100.00,NNE,20,5.0,7.0,93,0.00,,,-99.99,,2013-06-02 10:22:00,
2013-06-02 05:32:00,51.0,49.0,-100.00,NNE,20,5.0,7.0,92,0.00,,,-99.99,,2013-06-02 10:32:00,
2013-06-02 05:42:00,51.0,49.0,-100.00,North,10,7.0,8.0,92,0.00,,,-99.99,,2013-06-02 10:42:00,
2013-06-02 05:52:00,51.0,49.0,-100.00,North,10,7.0,9.0,91,0.00,,,-99.99,,2013-06-02 10:52:00,
2013-06-02 06:02:00,51.0,49.0,-100.00,NNE,15,6.0,9.0,91,0.00,,,-99.99,,2013-06-02 11:02:00,
2013-06-02 06:12:00,51.0,49.0,-100.00,NNE,20,7.0,9.0,91,0.00,,,-99.99,,2013-06-02 11:12:00,
2013-06-02 06:21:00,51.0,49.0,-100.00,NNE,20,7.0,9.0,91,0.00,,,-99.99,,2013-06-02 11:21:00,
2013-06-02 06:32:00,51.0,49.0,-100.00,NNE,25,8.0,10.0,91,0.00,,,-99.99,,2013-06-02 11:32:00,
2013-06-02 06:42:00,51.0,49.0,-100.00,NNE,20,7.0,10.0,90,0.00,,,-99.99,,2013-06-02 11:42:00,
2013-06-02 06:52:00,51.0,49.0,-100.00,NNE,20,7.0,10.0,91,0.00,,,-99.99,,2013-06-02 11:52:00,
2013-06-02 07:01:00,51.0,49.0,-100.00,NNE,25,6.0,11.0,91,0.00,,,-99.99,,2013-06-02 12:01:00,
2013-06-02 07:11:00,52.0,49.0,-100.00,NNE,30,7.0,11.0,90,0.00,,,-99.99,,2013-06-02 12:11:00,
2013-06-02 07:21:00,52.0,49.0,-100.00,NNE,25,7.0,10.0,89,0.00,,,-99.99,,2013-06-02 12:21:00,
2013-06-02 07:31:00,52.0,49.0,-100.00,NNE,25,6.0,10.0,90,0.00,,,-99.99,,2013-06-02 12:31:00,
2013-06-02 07:42:00,52.0,49.0,-100.00,NE,40,9.0,13.0,89,0.00,,,-99.99,,2013-06-02 12:42:00,
2013-06-02 07:52:00,52.0,49.0,-100.00,NNE,30,8.0,11.0,88,0.00,,,-99.99,,2013-06-02 12:52:00,
2013-06-02 08:01:00,53.0,49.0,-100.00,NE,45,7.0,13.0,87,0.00,,,-99.99,,2013-06-02 13:01:00,
2013-06-02 08:11:00,53.0,49.0,-100.00,NNE,30,9.0,12.0,86,0.00,,,-99.99,,2013-06-02 13:11:00,
2013-06-02 08:21:00,54.0,49.0,-100.00,NE,40,8.0,12.0,84,0.00,,,-99.99,,2013-06-02 13:21:00,
2013-06-02 08:32:00,54.0,49.0,-100.00,NE,40,10.0,15.0,82,0.00,,,-99.99,,2013-06-02 13:32:00,
2013-06-02 08:41:00,54.0,49.0,-100.00,NE,40,6.0,15.0,82,0.00,,,-99.99,,2013-06-02 13:41:00,
2013-06-02 08:52:00,55.0,48.0,-100.00,NE,35,9.0,16.0,76,0.00,,,-99.99,,2013-06-02 13:52:00,
2013-06-02 09:01:00,55.0,47.0,-100.00,NE,40,6.0,15.0,75,0.00,,,-99.99,,2013-06-02 14:01:00,
2013-06-02 09:11:00,55.0,45.0,-100.00,NE,40,11.0,14.0,70,0.00,,,-99.99,,2013-06-02 14:11:00,
2013-06-02 09:21:00,55.0,45.0,-100.00,East,80,8.0,15.0,68,0.00,,,-99.99,,2013-06-02 14:21:00,
2013-06-02 09:32:00,56.0,46.0,-100.00,NNE,25,7.0,13.0,68,0.00,,,-99.99,,2013-06-02 14:32:00,
2013-06-02 09:42:00,56.0,46.0,-100.00,NE,45,7.0,14.0,69,0.00,,,-99.99,,2013-06-02 14:42:00,
2013-06-02 09:52:00,55.0,46.0,-100.00,ENE,75,7.0,12.0,69,0.00,,,-99.99,,2013-06-02 14:52:00,
2013-06-02 10:01:00,55.0,46.0,-100.00,ENE,75,7.0,12.0,69,0.00,,,-99.99,,2013-06-02 15:01:00,
2013-06-02 10:11:00,55.0,46.0,-100.00,NE,35,9.0,14.0,70,0.00,,,-99.99,,2013-06-02 15:11:00,
2013-06-02 10:21:00,56.0,46.0,-100.00,ENE,75,9.0,14.0,71,0.00,,,-99.99,,2013-06-02 15:21:00,
2013-06-02 10:32:00,56.0,46.0,-100.00,ENE,70,6.0,12.0,70,0.00,,,-99.99,,2013-06-02 15:32:00,
2013-06-02 10:43:00,56.0,47.0,-100.00,NE,50,7.0,12.0,71,0.00,,,-99.99,,2013-06-02 15:43:00,
2013-06-02 10:53:00,56.0,47.0,-100.00,ENE,75,4.0,9.0,69,0.00,,,-99.99,,2013-06-02 15:53:00,
2013-06-02 11:03:00,57.0,46.0,-100.00,NE,55,7.0,12.0,67,0.00,,,-99.99,,2013-06-02 16:03:00,
2013-06-02 11:13:00,58.0,46.0,-100.00,East,90,8.0,14.0,65,0.00,,,-99.99,,2013-06-02 16:13:00,
2013-06-02 11:23:00,58.0,46.0,-100.00,NE,45,6.0,13.0,64,0.00,,,-99.99,,2013-06-02 16:23:00,
2013-06-02 11:33:00,58.0,45.0,-100.00,ENE,75,6.0,9.0,63,0.00,,,-99.99,,2013-06-02 16:33:00,
2013-06-02 11:42:00,58.0,46.0,-100.00,East,90,7.0,11.0,62,0.00,,,-99.99,,2013-06-02 16:42:00,
2013-06-02 11:52:00,60.0,46.0,-100.00,ENE,60,6.0,12.0,59,0.00,,,-99.99,,2013-06-02 16:52:00,
2013-06-02 12:02:00,62.0,47.0,-100.00,East,90,7.0,12.0,58,0.00,,,-99.99,,2013-06-02 17:02:00,
2013-06-02 12:12:00,62.0,47.0,-100.00,NE,45,3.0,9.0,57,0.00,,,-99.99,,2013-06-02 17:12:00,
2013-06-02 12:22:00,62.0,46.0,-100.00,ENE,70,4.0,11.0,57,0.00,,,-99.99,,2013-06-02 17:22:00,
2013-06-02 12:32:00,60.0,45.0,-100.00,NNE,15,7.0,12.0,58,0.00,,,-99.99,,2013-06-02 17:32:00,
2013-06-02 12:42:00,59.0,46.0,-100.00,NNE,25,6.0,12.0,60,0.00,,,-99.99,,2013-06-02 17:42:00,
2013-06-02 12:52:00,60.0,45.0,-100.00,NNE,30,7.0,11.0,57,0.00,,,-99.99,,2013-06-02 17:52:00,
2013-06-02 13:01:00,61.0,45.0,-100.00,SSE,150,2.0,11.0,56,0.00,,,-99.99,,2013-06-02 18:01:00,
2013-06-02 13:11:00,62.0,46.0,-100.00,NNE,25,6.0,9.0,56,0.00,,,-99.99,,2013-06-02 18:11:00,
2013-06-02 13:32:00,63.0,45.0,-100.00,NE,55,5.0,8.0,53,0.00,,,-99.99,,2013-06-02 18:32:00,
2013-06-02 13:52:00,63.0,45.0,-100.00,ENE,60,5.0,11.0,51,0.00,,,-99.99,,2013-06-02 18:52:00,
2013-06-02 14:01:00,63.0,45.0,-100.00,ENE,60,5.0,11.0,51,0.00,,,-99.99,,2013-06-02 19:01:00,
2013-06-02 14:11:00,63.0,45.0,-100.00,East,95,6.0,11.0,51,0.00,,,-99.99,,2013-06-02 19:11:00,
2013-06-02 14:21:00,63.0,45.0,-100.00,East,95,6.0,11.0,51,0.00,,,-99.99,,2013-06-02 19:21:00,
2013-06-02 14:32:00,65.0,45.0,-100.00,NE,45,10.0,12.0,49,0.00,,,-99.99,,2013-06-02 19:32:00,
2013-06-02 14:42:00,65.0,45.0,-100.00,NE,45,10.0,12.0,49,0.00,,,-99.99,,2013-06-02 19:42:00,
2013-06-02 14:52:00,64.0,45.0,-100.00,NNE,15,7.0,12.0,49,0.00,,,-99.99,,2013-06-02 19:52:00,
2013-06-02 15:02:00,64.0,45.0,-100.00,NNE,15,7.0,12.0,49,0.00,,,-99.99,,2013-06-02 20:02:00,
2013-06-02 15:21:00,66.0,47.0,-100.00,ENE,60,7.0,11.0,49,0.00,,,-99.99,,2013-06-02 20:21:00,
2013-06-02 15:32:00,66.0,46.0,-100.00,North,0,4.0,8.0,47,0.00,,,-99.99,,2013-06-02 20:32:00,
2013-06-02 15:42:00,65.0,44.0,-100.00,NNE,20,7.0,14.0,46,0.00,,,-99.99,,2013-06-02 20:42:00,
2013-06-02 15:52:00,66.0,45.0,-100.00,ESE,105,3.0,9.0,46,0.00,,,-99.99,,2013-06-02 20:52:00,
2013-06-02 16:11:00,67.0,45.0,-100.00,SE,135,1.0,9.0,44,0.00,,,-99.99,,2013-06-02 21:11:00,
2013-06-02 16:21:00,68.0,45.0,-100.00,North,5,6.0,8.0,43,0.00,,,-99.99,,2013-06-02 21:21:00,
2013-06-02 16:33:00,67.0,45.0,-100.00,North,5,2.0,8.0,44,0.00,,,-99.99,,2013-06-02 21:33:00,
2013-06-02 16:42:00,68.0,46.0,-100.00,NE,40,1.0,6.0,44,0.00,,,-99.99,,2013-06-02 21:42:00,
2013-06-02 16:53:00,68.0,45.0,-100.00,NE,40,4.0,9.0,42,0.00,,,-99.99,,2013-06-02 21:53:00,
2013-06-02 17:03:00,68.0,45.0,-100.00,NE,40,4.0,9.0,42,0.00,,,-99.99,,2013-06-02 22:03:00,
2013-06-02 17:12:00,68.0,44.0,-100.00,East,80,2.0,6.0,41,0.00,,,-99.99,,2013-06-02 22:12:00,
2013-06-02 17:23:00,67.0,44.0,-100.00,SSW,200,2.0,6.0,42,0.00,,,-99.99,,2013-06-02 22:23:00,
2013-06-02 17:33:00,69.0,46.0,-100.00,NW,320,0.0,4.0,42,0.00,,,-99.99,,2013-06-02 22:33:00,
2013-06-02 17:42:00,69.0,44.0,-100.00,NNE,30,5.0,7.0,40,0.00,,,-99.99,,2013-06-02 22:42:00,
2013-06-02 17:52:00,68.0,43.0,-100.00,NW,325,5.0,6.0,40,0.00,,,-99.99,,2013-06-02 22:52:00,
2013-06-02 18:02:00,68.0,43.0,-100.00,NW,325,5.0,6.0,40,0.00,,,-99.99,,2013-06-02 23:02:00,
2013-06-02 18:12:00,69.0,44.0,-100.00,ENE,75,1.0,4.0,39,0.00,,,-99.99,,2013-06-02 23:12:00,
2013-06-02 18:32:00,69.0,44.0,-100.00,SW,235,1.0,4.0,39,0.00,,,-99.99,,2013-06-02 23:32:00,
2013-06-02 18:42:00,70.0,44.0,-100.00,West,275,1.0,2.0,39,0.00,,,-99.99,,2013-06-02 23:42:00,
2013-06-02 18:52:00,69.0,44.0,-100.00,ESE,110,3.0,6.0,39,0.00,,,-99.99,,2013-06-02 23:52:00,
2013-06-02 19:01:00,69.0,43.0,-100.00,NE,40,3.0,6.0,39,0.00,,,-99.99,,2013-06-03 00:01:00,
2013-06-02 19:11:00,70.0,43.0,-100.00,North,10,2.0,6.0,38,0.00,,,-99.99,,2013-06-03 00:11:00,
2013-06-02 19:21:00,69.0,43.0,-100.00,NW,315,1.0,6.0,38,0.00,,,-99.99,,2013-06-03 00:21:00,
2013-06-02 19:32:00,69.0,42.0,-100.00,NNW,330,3.0,4.0,38,0.00,,,-99.99,,2013-06-03 00:32:00,
2013-06-02 19:42:00,68.0,42.0,-100.00,NNW,340,4.0,4.0,39,0.00,,,-99.99,,2013-06-03 00:42:00,
2013-06-02 19:51:00,68.0,42.0,-100.00,NNW,330,2.0,3.0,38,0.00,,,-99.99,,2013-06-03 00:51:00,
2013-06-02 20:11:00,67.0,41.0,-100.00,NW,325,1.0,2.0,39,0.00,,,-99.99,,2013-06-03 01:11:00,
2013-06-02 20:21:00,67.0,42.0,-100.00,NNW,345,1.0,2.0,39,0.00,,,-99.99,,2013-06-03 01:21:00,
2013-06-02 20:32:00,67.0,41.0,-100.00,NNW,345,0.0,1.0,39,0.00,,,-99.99,,2013-06-03 01:32:00,
2013-06-02 20:42:00,67.0,41.0,-100.00,NNW,345,0.0,1.0,39,0.00,,,-99.99,,2013-06-03 01:42:00,
2013-06-02 20:52:00,65.0,44.0,-100.00,NNW,345,0.0,0.0,46,0.00,,,-99.99,,2013-06-03 01:52:00,
2013-06-02 21:02:00,63.0,43.0,-100.00,NW,320,0.0,0.0,49,0.00,,,-99.99,,2013-06-03 02:02:00,
2013-06-02 21:12:00,61.0,43.0,-100.00,NW,325,0.0,1.0,52,0.00,,,-99.99,,2013-06-03 02:12:00,
2013-06-02 21:22:00,60.0,44.0,-100.00,NW,305,1.0,3.0,55,0.00,,,-99.99,,2013-06-03 02:22:00,
2013-06-02 21:32:00,58.0,46.0,-100.00,WNW,300,0.0,0.0,63,0.00,,,-99.99,,2013-06-03 02:32:00,
2013-06-02 21:42:00,57.0,46.0,-100.00,SW,225,2.0,2.0,67,0.00,,,-99.99,,2013-06-03 02:42:00,
2013-06-02 21:52:00,56.0,47.0,-100.00,SSE,155,0.0,2.0,71,0.00,,,-99.99,,2013-06-03 02:52:00,
2013-06-02 22:12:00,54.0,47.0,-100.00,SSE,155,0.0,1.0,76,0.00,,,-99.99,,2013-06-03 03:12:00,
2013-06-02 22:22:00,54.0,48.0,-100.00,SSE,155,0.0,0.0,80,0.00,,,-99.99,,2013-06-03 03:22:00,
2013-06-02 22:33:00,53.0,48.0,-100.00,SSE,155,0.0,0.0,83,0.00,,,-99.99,,2013-06-03 03:33:00,
2013-06-02 22:43:00,53.0,48.0,-100.00,SW,225,1.0,2.0,85,0.00,,,-99.99,,2013-06-03 03:43:00,
2013-06-02 22:53:00,52.0,49.0,-100.00,SW,235,0.0,2.0,88,0.00,,,-99.99,,2013-06-03 03:53:00,
2013-06-02 23:03:00,52.0,49.0,-100.00,SSW,205,0.0,1.0,90,0.00,,,-99.99,,2013-06-03 04:03:00,
2013-06-02 23:12:00,52.0,49.0,-100.00,SSW,200,0.0,0.0,90,0.00,,,-99.99,,2013-06-03 04:12:00,
2013-06-02 23:23:00,51.0,48.0,-100.00,SSW,205,0.0,0.0,91,0.00,,,-99.99,,2013-06-03 04:23:00,
2013-06-02 23:33:00,51.0,48.0,-100.00,SSW,205,0.0,0.0,92,0.00,,,-99.99,,2013-06-03 04:33:00,
2013-06-02 23:42:00,50.0,48.0,-100.00,SSW,205,0.0,0.0,93,0.00,,,-99.99,,2013-06-03 04:42:00,
2013-06-02 23:52:00,50.0,48.0,-100.00,SSW,205,0.0,0.0,95,0.00,,,-99.99,,2013-06-03 04:52:00,